Location: Astronomy Club of Akron Observatory
(40.9700°N, 81.5606°W)
Time: 15:37:32
(UTC-04:00)

OTV 5 (USA 277) - Visible Passes

Search period start: 16 October 2019 00:00
Search period end: 26 October 2019 00:00
Orbit: 310 x 324 km, 54.5° (Epoch: 08 October)

Date Brightness Start Highest point End Pass type
(mag) Time Alt. Az. Time Alt. Az. Time Alt. Az.
16 Oct ? 06:11:19 10° N 06:12:20 11° NNE 06:13:22 10° NE visible
17 Oct ? 06:25:13 11° NNW 06:27:11 20° NNE 06:29:20 10° E visible
18 Oct ? 06:39:38 13° NW 06:41:54 46° NE 06:44:32 10° ESE visible
19 Oct ? 05:23:15 12° ENE 05:23:15 12° ENE 05:23:36 10° ENE visible
19 Oct ? 06:54:10 13° WNW 06:56:27 55° SW 06:59:07 10° SE visible
20 Oct ? 05:37:53 20° E 05:37:53 20° E 05:39:08 10° E visible
20 Oct ? 07:08:50 10° W 07:10:51 18° SW 07:12:50 10° S visible
21 Oct ? 05:52:41 26° SE 05:52:41 26° SE 05:54:02 10° SE visible
22 Oct ? 06:07:36 15° S 06:07:36 15° S 06:08:14 10° SSE visible
